Flag for U.S.A. Weather past 2 weeks in Olathe, Kansas, U.S.A.

Now
76 °F

Sunny.


Feels Like: 77 °F
Forecast: 68 / 86 °F
Wind: 7 mph from South

Location: Johnson County Executive Airport

Current Time: Aug 31, 2015 at 10:29:47 AM

Latest Report: Aug 31, 2015 at 9:53 AM


Visibility: 8 mi

Pressure: 29.96 "Hg

Humidity: 82%

Dew point: 70 °F

Location of OlatheLocation

Historic Weather in Olathe — Graph

°F

Olathe temperature yesterday

Maximum temperature yesterday: 81 °F (at 2:53 PM)
Minimum temperature yesterday: 67 °F (at 1:53 AM)
Average temperature yesterday: 73 °F

Past Weeks' High & Low Weather Summary

 TemperatureHumidityPressure
High90 °F (Aug 17, 4:53 PM)100% (Aug 30, 5:53 AM)30.19 "Hg (Aug 30, 5:53 AM)
Low51 °F (Aug 24, 6:53 AM)37% (Aug 24, 1:53 PM)29.63 "Hg (Aug 18, 5:53 PM)
Average71 °F75%29.98 "Hg
* Reported Aug 16 8:53 AM — Aug 31 8:53 AM, Olathe, Weather by CustomWeather, © 2015

Note: Actual official high and low records may vary slightly from our data, if they occured in-between our weather recording intervals... More about our weather records

Advertising

Olathe weather history for previous 24 hours

 ConditionsComfort  
Time TempWeatherWind HumidityBarometerVisibility
8:53 AM
Mon, Aug 31
72 °FFog.8 mph97%29.97 "Hg4 mi
7:53 AM70 °FFog.6 mph97%29.96 "Hg2 mi
6:53 AM69 °FFog.6 mph96%29.95 "Hg2 mi
5:53 AM69 °FFog.5 mph100%29.93 "Hg4 mi
4:53 AM69 °FFog.6 mph100%29.93 "Hg4 mi
3:53 AM70 °FFog.5 mph97%29.92 "Hg5 mi
2:53 AM71 °FFog.3 mph96%29.93 "Hg5 mi
1:53 AM72 °FClear.5 mph93%29.93 "Hg7 mi
12:53 AM73 °FClear.5 mph94%29.93 "Hg8 mi
11:53 PM
Sun, Aug 30
74 °FPassing clouds.5 mph91%29.93 "Hg9 mi
10:53 PM75 °FPassing clouds.No wind85%29.95 "Hg10 mi
9:53 PM75 °FClear.5 mph85%29.95 "Hg10 mi
8:53 PM76 °FClear.5 mph82%29.94 "Hg10 mi
7:53 PM78 °FSunny.3 mph74%29.93 "Hg10 mi
6:53 PM80 °FSunny.7 mph67%29.92 "Hg10 mi
5:53 PM81 °FPassing clouds.7 mph67%29.93 "Hg10 mi
4:53 PM81 °FSunny.6 mph67%29.95 "Hg10 mi
3:53 PM81 °FSunny.8 mph69%29.96 "Hg10 mi
2:53 PM81 °FBroken clouds.8 mph69%29.98 "Hg10 mi
1:53 PM80 °FBroken clouds.7 mph71%29.99 "Hg10 mi
12:53 PM79 °FPartly sunny.7 mph74%30.00 "Hg10 mi
11:53 AM76 °FPartly sunny.6 mph82%30.03 "Hg9 mi
10:53 AM72 °FPartly sunny.6 mph91%30.03 "Hg7 mi
Weather by CustomWeather, © 2015

See weather overviewHow to use our weather pages